Istanbul, Turkey

10:10 PM +03 on April 27, 2017 (GMT +0300)
Ataturk

Weather History for LTBA - July, 2012

Change the Weather History Date:

Thursday, July 19, 2012

  Actual Average Record
Temperature  
Mean Temperature 80 °F -  
Max Temperature 87 °F 82 °F 93 °F (2007)
Min Temperature 73 °F 69 °F 66 °F (1996)
Cooling Degree Days 15    
Growing Degree Days 30 (Base 50)    
Moisture  
Dew Point 58 °F    
Average Humidity 47    
Maximum Humidity 61    
Minimum Humidity 22    
Precipitation  
Precipitation 0.00 in - - ()
Sea Level Pressure  
Sea Level Pressure 29.96 in    
Wind  
Wind Speed 12 mph ()    
Max Wind Speed 22 mph    
Max Gust Speed 32 mph    
Visibility 6.2 miles    
Events      
Averages and records for this station are not official NWS values.
T = Trace of Precipitation, MM = Missing Value Source: Averaged Metar Reports

Daily Weather History Graph

Daily Weather History Graph

Search for Another Location

Airport or City:

Trip Planner

Search our weather history database for the weather conditions in past years. The results will help you decide how hot, cold, wet, or windy it might be!

Date:

Astronomy

Jul. 19, 2012 Rise Set
Actual Time 5:49 AM EEST 8:32 PM EEST
Civil Twilight 5:16 AM EEST 9:04 PM EEST
Nautical Twilight 4:36 AM EEST 9:44 PM EEST
Astronomical Twilight 3:50 AM EEST 10:30 PM EEST
Moon 6:03 AM EEST (7/19) 8:26 PM EEST (7/19)
Length of Visible Light 15h 47m
Length of Day
14h 43m
New Moon, 0% of the Moon is Illuminated
Jul 19
New Moon
Jul 26
First Quarter
Aug 2
Full
Aug 9
Last Quarter
Aug 17
New

Hourly Weather History & Observations

Time (EEST) Temp. Heat Index Dew Point Humidity Pressure Visibility Wind Dir Wind Speed Gust Speed Precip Events Conditions
12:20 AM 77.0 °F - 59.0 °F 54% 30.01 in - ENE 9.2 mph - N/A   Clear
12:50 AM 75.2 °F - 59.0 °F 57% 30.01 in - ENE 9.2 mph - N/A   Clear
1:20 AM 75.2 °F - 59.0 °F 57% 30.01 in - ENE 10.4 mph - N/A   Clear
1:50 AM 75.2 °F - 59.0 °F 57% 30.01 in - ENE 9.2 mph - N/A   Clear
2:20 AM 75.2 °F - 59.0 °F 57% 30.01 in - ENE 8.1 mph - N/A   Clear
2:50 AM 75.2 °F - 59.0 °F 57% 29.98 in - ENE 8.1 mph - N/A   Clear
3:00 AM 74 °F - 58 °F 48% 30.00 in 6 mi ENE 8.1 mph - -  
3:20 AM 75.2 °F - 59.0 °F 57% 29.98 in - NE 9.2 mph - N/A   Clear
3:50 AM 75.2 °F - 59.0 °F 57% 29.98 in - ENE 9.2 mph - N/A   Clear
4:20 AM 73.4 °F - 59.0 °F 61% 29.98 in - NE 8.1 mph - N/A   Clear
4:50 AM 73.4 °F - 57.2 °F 57% 29.98 in - ENE 8.1 mph - N/A   Clear
5:20 AM 75.2 °F - 59.0 °F 57% 29.98 in - NE 10.4 mph - N/A   Clear
5:50 AM 73.4 °F - 59.0 °F 61% 29.98 in - NE 10.4 mph - N/A   Clear
6:20 AM 75.2 °F - 59.0 °F 57% 29.98 in - NE 9.2 mph - N/A   Clear
6:50 AM 75.2 °F - 60.8 °F 61% 29.98 in - ENE 9.2 mph - N/A   Clear
7:20 AM 77.0 °F - 60.8 °F 57% 29.98 in - East 10.4 mph - N/A   Clear
7:50 AM 77.0 °F - 60.8 °F 57% 29.98 in - ENE 12.7 mph - N/A   Clear
8:20 AM 78.8 °F - 60.8 °F 54% 30.01 in - ENE 13.8 mph - N/A   Clear
8:50 AM 80.6 °F 81.5 °F 60.8 °F 51% 29.98 in 6.2 mi ENE 16.1 mph - N/A   Partly Cloudy
9:00 AM 80 °F - 59 °F 38% 29.99 in 6 mi ENE 16.1 mph - -   Scattered Clouds
9:20 AM 78.8 °F - 60.8 °F 54% 29.98 in 6.2 mi ENE 17.3 mph - N/A   Partly Cloudy
9:50 AM 82.4 °F 82.0 °F 57.2 °F 42% 29.98 in 6.2 mi NE 15.0 mph - N/A   Partly Cloudy
10:20 AM 80.6 °F 80.8 °F 57.2 °F 45% 29.98 in 6.2 mi ENE 18.4 mph - N/A   Partly Cloudy
10:50 AM 82.4 °F 81.7 °F 55.4 °F 39% 29.98 in 6.2 mi NE 16.1 mph - N/A   Partly Cloudy
11:20 AM 84.2 °F 82.8 °F 53.6 °F 35% 29.98 in 6.2 mi ENE 19.6 mph - N/A   Partly Cloudy
11:50 AM 84.2 °F 83.0 °F 55.4 °F 37% 29.98 in 6.2 mi NE 18.4 mph - N/A   Partly Cloudy
12:20 PM 86.0 °F 84.5 °F 55.4 °F 35% 29.98 in 6.2 mi NNE 18.4 mph - N/A   Partly Cloudy
12:50 PM 84.2 °F 83.0 °F 55.4 °F 37% 29.98 in 6.2 mi NE 18.4 mph - N/A   Partly Cloudy
1:20 PM 84.2 °F 83.5 °F 57.2 °F 40% 29.95 in 6.2 mi NE 18.4 mph - N/A   Partly Cloudy
1:50 PM 86.0 °F 84.2 °F 53.6 °F 33% 29.95 in 6.2 mi NE 18.4 mph 31.1 mph N/A   Partly Cloudy
2:20 PM 86.0 °F 84.2 °F 53.6 °F 33% 29.95 in 6.2 mi NE 18.4 mph - N/A   Partly Cloudy
2:50 PM 86.0 °F 84.2 °F 53.6 °F 33% 29.95 in 6.2 mi NE 19.6 mph 32.2 mph N/A   Partly Cloudy
3:00 PM 85 °F - 52 °F 22% 29.95 in 6 mi NE 19.6 mph - -   Scattered Clouds
3:20 PM 84.2 °F 82.8 °F 53.6 °F 35% 29.95 in 6.2 mi NE 21.9 mph - N/A   Partly Cloudy
3:50 PM 84.2 °F 82.8 °F 53.6 °F 35% 29.95 in 6.2 mi NE 21.9 mph - N/A   Partly Cloudy
4:20 PM 84.2 °F 83.8 °F 59.0 °F 42% 29.95 in 6.2 mi NNE 20.7 mph - N/A   Partly Cloudy
4:50 PM 84.2 °F 83.8 °F 59.0 °F 42% 29.95 in 6.2 mi NE 21.9 mph - N/A   Partly Cloudy
5:20 PM 84.2 °F 83.0 °F 55.4 °F 37% 29.95 in 6.2 mi NE 17.3 mph - N/A   Partly Cloudy
5:50 PM 82.4 °F 81.4 °F 53.6 °F 37% 29.95 in 6.2 mi NE 20.7 mph - N/A   Partly Cloudy
6:20 PM 82.4 °F 82.0 °F 57.2 °F 42% 29.92 in 6.2 mi NE 18.4 mph - N/A   Partly Cloudy
6:50 PM 82.4 °F 82.0 °F 57.2 °F 42% 29.92 in 6.2 mi NE 18.4 mph - N/A   Partly Cloudy
7:20 PM 80.6 °F 80.5 °F 55.4 °F 42% 29.92 in - NE 18.4 mph - N/A   Clear
7:50 PM 80.6 °F 80.8 °F 57.2 °F 45% 29.92 in - NE 16.1 mph - N/A   Clear
8:20 PM 78.8 °F - 59.0 °F 51% 29.92 in - NE 15.0 mph - N/A   Clear
8:50 PM 78.8 °F - 59.0 °F 51% 29.92 in - NE 17.3 mph - N/A   Clear
9:00 PM 78 °F - 59 °F 41% 29.94 in 6 mi NE 17.3 mph - -  
9:20 PM 78.8 °F - 59.0 °F 51% 29.92 in - NE 16.1 mph - N/A   Clear
9:50 PM 78.8 °F - 59.0 °F 51% 29.92 in - NE 13.8 mph - N/A   Clear
10:20 PM 77.0 °F - 59.0 °F 54% 29.92 in - NE 13.8 mph - N/A   Clear
10:50 PM 77.0 °F - 59.0 °F 54% 29.92 in - NE 12.7 mph - N/A   Clear
11:20 PM 77.0 °F - 59.0 °F 54% 29.92 in - NE 10.4 mph - N/A   Clear
11:50 PM 77.0 °F - 59.0 °F 54% 29.92 in - ENE 10.4 mph - N/A   Clear